User: anonymous   Login
Location: Rio Negrinho
(26.2394°S, 49.4999°W)
Time: 11:26:44
(UTC+00:00)
Language:

Cosmos 44 Rocket - Orbit

View from above orbital plane
View from above orbital plane
View from above satellite
View from above satellite

Ground track
Ground track

The orbit data is extracted from the following two-line orbital elements,

1   877U 64053B   20227.20956981 -.00000082  00000-0  82222-5 0  9995
2   877  65.0782 160.2022 0063390   2.4586 357.6812 14.59396635969918
Epoch (UTC): 14 August 2020 05:01:46
Eccentricity: 0.0063390
inclination: 65.0782°
perigee height: 650 km
apogee height: 740 km
right ascension of ascending node: 160.2022°
argument of perigee: 2.4586°
revolutions per day: 14.59396635
mean anomaly at epoch: 357.6812°
orbit number at epoch: 96991

The dashed part of the orbit path shows where the satellite is in the earth's shadow,  

DLR